• In Österreich
  • Länderverzeichnis
  • Für 7 Tage
  • Wassertemperatur
  • Satellitenkarten
  • Wetterkarte
  • News
  • Widgets
  • user-avatar
    Anmelden

    Stündliche Wetter Fez

    Heute, 23 Juli, Montag

    Zeit Temperatur Niederschläge Wind Luftdruck Luftfeuchtigkeit
    00:00 +29°C° 0 mm 1 m/S 730 mmHg 42%
    01:00 +28°C° 0 mm 1 m/S 730 mmHg 44%
    02:00 +28°C° 0 mm 1 m/S 729 mmHg 46%
    03:00 +27°C° 0 mm 1 m/S 729 mmHg 48%
    04:00 +27°C° 0 mm 1 m/S 729 mmHg 50%
    05:00 +26°C° 0 mm 1 m/S 729 mmHg 51%
    06:00 +26°C° 0 mm 1 m/S 730 mmHg 53%
    07:00 +28°C° 0 mm 1 m/S 730 mmHg 48%
    08:00 +29°C° 0 mm 1 m/S 730 mmHg 43%
    09:00 +31°C° 0 mm 1 m/S 730 mmHg 38%
    10:00 +34°C° 0 mm 2 m/S 730 mmHg 33%
    11:00 +36°C° 0 mm 2 m/S 730 mmHg 29%
    12:00 +37°C° 0 mm 3 m/S 730 mmHg 25%
    13:00 +38°C° 0 mm 3 m/S 730 mmHg 24%
    14:00 +40°C° 0 mm 4 m/S 730 mmHg 22%
    15:00 +41°C° 0 mm 4 m/S 730 mmHg 21%
    16:00 +40°C° 0 mm 4 m/S 730 mmHg 24%
    17:00 +38°C° 0 mm 4 m/S 730 mmHg 26%
    18:00 +37°C° 0 mm 4 m/S 730 mmHg 29%
    19:00 +35°C° 0 mm 3 m/S 730 mmHg 33%
    20:00 +34°C° 0 mm 3 m/S 730 mmHg 38%
    21:00 +31°C° 0 mm 2 m/S 731 mmHg 42%
    22:00 +30°C° 0 mm 2 m/S 731 mmHg 44%
    23:00 +29°C° 0 mm 1 m/S 731 mmHg 47%

    Morgen, 24 Juli, Dienstag

    Zeit Temperatur Niederschläge Wind Luftdruck Luftfeuchtigkeit
    00:00 +28°C° 0 mm 1 m/S 731 mmHg 49%
    01:00 +28°C° 0 mm 1 m/S 730 mmHg 52%
    02:00 +27°C° 0 mm 1 m/S 730 mmHg 55%
    03:00 +26°C° 0 mm 1 m/S 730 mmHg 58%
    04:00 +26°C° 0 mm 1 m/S 730 mmHg 59%
    05:00 +25°C° 0 mm 1 m/S 730 mmHg 61%
    06:00 +25°C° 0 mm 1 m/S 730 mmHg 63%
    07:00 +27°C° 0 mm 1 m/S 730 mmHg 56%
    08:00 +28°C° 0 mm 1 m/S 730 mmHg 50%
    09:00 +30°C° 0 mm 1 m/S 730 mmHg 44%
    10:00 +32°C° 0 mm 2 m/S 730 mmHg 39%
    11:00 +34°C° 0 mm 2 m/S 730 mmHg 34%
    12:00 +36°C° 0 mm 3 m/S 730 mmHg 29%
    13:00 +37°C° 0 mm 3 m/S 730 mmHg 27%
    14:00 +38°C° 0 mm 3 m/S 729 mmHg 24%
    15:00 +40°C° 0 mm 4 m/S 729 mmHg 22%
    16:00 +38°C° 0 mm 4 m/S 729 mmHg 23%
    17:00 +37°C° 0 mm 4 m/S 729 mmHg 24%
    18:00 +37°C° 0 mm 4 m/S 729 mmHg 25%
    19:00 +35°C° 0 mm 3 m/S 729 mmHg 29%
    20:00 +33°C° 0 mm 3 m/S 729 mmHg 33%
    21:00 +30°C° 0 mm 2 m/S 730 mmHg 37%
    22:00 +29°C° 0 mm 2 m/S 730 mmHg 40%
    23:00 +28°C° 0 mm 1 m/S 730 mmHg 43%

    übermorgen, 25 Juli, Mittwoch

    Zeit Temperatur Niederschläge Wind Luftdruck Luftfeuchtigkeit
    00:00 +28°C° 0 mm 1 m/S 730 mmHg 47%
    01:00 +27°C° 0 mm 1 m/S 730 mmHg 49%
    02:00 +26°C° 0 mm 1 m/S 729 mmHg 52%
    03:00 +25°C° 0 mm 1 m/S 729 mmHg 55%
    04:00 +25°C° 0 mm 1 m/S 729 mmHg 57%
    05:00 +25°C° 0 mm 1 m/S 729 mmHg 58%
    06:00 +24°C° 0 mm 1 m/S 729 mmHg 60%
    07:00 +26°C° 0 mm 1 m/S 729 mmHg 54%
    08:00 +28°C° 0 mm 1 m/S 730 mmHg 47%
    09:00 +29°C° 0 mm 1 m/S 730 mmHg 41%
    10:00 +31°C° 0 mm 2 m/S 730 mmHg 36%
    11:00 +34°C° 0 mm 2 m/S 730 mmHg 31%
    12:00 +36°C° 0 mm 3 m/S 730 mmHg 27%
    13:00 +37°C° 0 mm 3 m/S 729 mmHg 25%
    14:00 +37°C° 0 mm 4 m/S 729 mmHg 24%
    15:00 +38°C° 0 mm 4 m/S 729 mmHg 22%
    16:00 +37°C° 0 mm 4 m/S 729 mmHg 24%
    17:00 +37°C° 0 mm 4 m/S 728 mmHg 26%
    18:00 +36°C° 0 mm 4 m/S 728 mmHg 28%
    19:00 +34°C° 0 mm 3 m/S 729 mmHg 32%
    20:00 +31°C° 0 mm 3 m/S 729 mmHg 37%
    21:00 +29°C° 0 mm 2 m/S 730 mmHg 41%
    22:00 +28°C° 0 mm 2 m/S 730 mmHg 44%
    23:00 +28°C° 0 mm 1 m/S 730 mmHg 47%

    26 Juli, Donnerstag

    Zeit Temperatur Niederschläge Wind Luftdruck Luftfeuchtigkeit
    00:00 +27°C° 0 mm 1 m/S 730 mmHg 51%
    01:00 +26°C° 0 mm 1 m/S 729 mmHg 54%
    02:00 +25°C° 0 mm 1 m/S 729 mmHg 57%
    03:00 +25°C° 0 mm 1 m/S 729 mmHg 60%
    04:00 +24°C° 0 mm 1 m/S 729 mmHg 62%
    05:00 +24°C° 0 mm 1 m/S 729 mmHg 64%
    06:00 +24°C° 0 mm 1 m/S 729 mmHg 66%
    07:00 +25°C° 0 mm 1 m/S 729 mmHg 59%
    08:00 +26°C° 0 mm 1 m/S 729 mmHg 53%
    09:00 +28°C° 0 mm 1 m/S 729 mmHg 46%
    10:00 +30°C° 0 mm 2 m/S 729 mmHg 41%
    11:00 +31°C° 0 mm 2 m/S 729 mmHg 36%
    12:00 +34°C° 0 mm 3 m/S 729 mmHg 31%
    13:00 +35°C° 0 mm 3 m/S 729 mmHg 29%
    14:00 +36°C° 0 mm 3 m/S 728 mmHg 27%
    15:00 +37°C° 0 mm 4 m/S 728 mmHg 24%
    16:00 +37°C° 0 mm 4 m/S 728 mmHg 26%
    17:00 +36°C° 0 mm 4 m/S 728 mmHg 27%
    18:00 +35°C° 0 mm 4 m/S 727 mmHg 28%
    19:00 +34°C° 0 mm 3 m/S 728 mmHg 33%
    20:00 +31°C° 0 mm 2 m/S 728 mmHg 38%
    21:00 +29°C° 0 mm 2 m/S 729 mmHg 42%
    22:00 +29°C° 0 mm 2 m/S 729 mmHg 45%
    23:00 +28°C° 0 mm 1 m/S 729 mmHg 48%

    27 Juli, Freitag

    Zeit Temperatur Niederschläge Wind Luftdruck Luftfeuchtigkeit
    00:00 +27°C° 0 mm 1 m/S 729 mmHg 51%
    01:00 +27°C° 0 mm 1 m/S 728 mmHg 53%
    02:00 +26°C° 0 mm 1 m/S 728 mmHg 56%
    03:00 +25°C° 0 mm 1 m/S 728 mmHg 58%
    04:00 +25°C° 0 mm 1 m/S 728 mmHg 60%
    05:00 +25°C° 0 mm 1 m/S 728 mmHg 61%
    06:00 +25°C° 0 mm 1 m/S 728 mmHg 63%
    07:00 +26°C° 0 mm 1 m/S 728 mmHg 57%
    08:00 +28°C° 0 mm 1 m/S 728 mmHg 51%
    09:00 +30°C° 0 mm 2 m/S 728 mmHg 44%
    10:00 +31°C° 0 mm 2 m/S 728 mmHg 39%
    11:00 +34°C° 0 mm 2 m/S 728 mmHg 34%
    12:00 +36°C° 0 mm 3 m/S 728 mmHg 29%
    13:00 +37°C° 0 mm 3 m/S 728 mmHg 28%
    14:00 +38°C° 0 mm 3 m/S 727 mmHg 26%
    15:00 +40°C° 0 mm 4 m/S 727 mmHg 24%
    16:00 +38°C° 0 mm 4 m/S 727 mmHg 26%
    17:00 +38°C° 0 mm 4 m/S 727 mmHg 27%
    18:00 +37°C° 0 mm 4 m/S 727 mmHg 29%
    19:00 +35°C° 0 mm 3 m/S 728 mmHg 33%
    20:00 +34°C° 0 mm 2 m/S 728 mmHg 36%
    21:00 +31°C° 0 mm 2 m/S 729 mmHg 40%
    22:00 +30°C° 0 mm 1 m/S 729 mmHg 43%
    23:00 +29°C° 0 mm 1 m/S 729 mmHg 45%

    28 Juli, Samstag

    Zeit Temperatur Niederschläge Wind Luftdruck Luftfeuchtigkeit
    00:00 +29°C° 0 mm 1 m/S 729 mmHg 48%
    01:00 +28°C° 0 mm 1 m/S 728 mmHg 50%
    02:00 +27°C° 0 mm 1 m/S 728 mmHg 52%
    03:00 +27°C° 0 mm 1 m/S 727 mmHg 53%
    04:00 +27°C° 0 mm 1 m/S 728 mmHg 54%
    05:00 +26°C° 0 mm 1 m/S 728 mmHg 55%
    06:00 +24°C° 0 mm 0 m/S 728 mmHg 55%
    07:00 +28°C° 0 mm 1 m/S 728 mmHg 49%
    08:00 +30°C° 0 mm 1 m/S 728 mmHg 43%
    09:00 +33°C° 0 mm 1 m/S 728 mmHg 36%
    10:00 +36°C° 0 mm 2 m/S 728 mmHg 32%
    11:00 +38°C° 0 mm 2 m/S 728 mmHg 27%
    12:00 +40°C° 0 mm 2 m/S 728 mmHg 23%
    13:00 +40°C° 0 mm 3 m/S 728 mmHg 22%
    14:00 +42°C° 0 mm 4 m/S 728 mmHg 20%
    15:00 +43°C° 0 mm 4 m/S 728 mmHg 19%
    16:00 +42°C° 0 mm 4 m/S 728 mmHg 21%
    17:00 +42°C° 0 mm 4 m/S 728 mmHg 23%
    18:00 +41°C° 0 mm 4 m/S 728 mmHg 25%
    19:00 +38°C° 0 mm 3 m/S 729 mmHg 29%
    20:00 +36°C° 0 mm 2 m/S 729 mmHg 34%
    21:00 +33°C° 0 mm 1 m/S 729 mmHg 38%
    22:00 +32°C° 0 mm 1 m/S 729 mmHg 40%
    23:00 +31°C° 0 mm 1 m/S 729 mmHg 43%
    Mehr zeigen